Home   Weather   Monza   Past weeks

Flag for Italy Past Weather in Monza, Italy — Yesterday and Last 2 Weeks

Now
72 °F

Clear.


Feels Like: 76 °F
Forecast: 70 / 90 °F
Wind: 1 mph from North

Location: Milan / Linate

Current Time: Jul 21, 2017 at 2:55:02 am

Latest Report: Jul 21, 2017 at 2:20 am


Visibility: 10 mi

Pressure: 29.89 "Hg

Humidity: 57%

Dew Point: 55 °F

Location of MonzaLocation

Past Weather in Monza — Graph

°F

Monza Temperature Yesterday

Maximum temperature yesterday: 88 °F (at 3:50 pm)
Minimum temperature yesterday: 68 °F (at 5:50 am)
Average temperature yesterday: 78 °F

High & Low Weather Summary for the Past Weeks

 TemperatureHumidityPressure
High93 °F (Jul 6, 6:20 pm)94% (Jul 10, 11:20 pm)30.21 "Hg (Jul 10, 11:20 pm)
Low66 °F (Jul 18, 5:20 am)23% (Jul 15, 1:20 pm)29.80 "Hg (Jul 10, 4:20 pm)
Average79 °F52%29.98 "Hg
* Reported Jul 6 1:20 am — Jul 21 1:20 am, Monza. Weather by CustomWeather, © 2017

Note: Actual official high and low records may vary slightly from our data, if they occured in-between our weather recording intervals... More about our weather records

Advertising

Monza Weather History for the Previous 24 Hours

Scroll right to see more
 ConditionsComfort  
Time TempWeatherWind HumidityBarometerVisibility
1:20 am
Fri, Jul 21
77 °FClear.1 mph44%29.89 "Hg10 mi
12:50 am77 °FPassing clouds.3 mph44%29.89 "HgN/A
12:20 am77 °FPassing clouds.5 mph44%29.89 "HgN/A
11:50 pm
Thu, Jul 20
77 °FClear.2 mph51%29.89 "Hg10 mi
11:20 pm79 °FPassing clouds.3 mph48%29.89 "HgN/A
10:50 pm79 °FPassing clouds.3 mph48%29.89 "HgN/A
10:20 pm79 °FPassing clouds.3 mph51%29.89 "HgN/A
9:50 pm81 °FPassing clouds.6 mph51%29.86 "HgN/A
9:20 pm81 °FPassing clouds.5 mph54%29.86 "HgN/A
8:50 pm81 °FPassing clouds.5 mph58%29.86 "HgN/A
7:50 pm84 °FPassing clouds.5 mph48%29.83 "HgN/A
7:20 pm84 °FPassing clouds.6 mph48%29.83 "HgN/A
6:50 pm86 °FPassing clouds.6 mph46%29.83 "HgN/A
6:20 pm86 °FPassing clouds.7 mph46%29.83 "HgN/A
5:50 pm86 °FPassing clouds.6 mph43%29.86 "HgN/A
5:20 pm86 °FPassing clouds.6 mph43%29.86 "HgN/A
4:50 pm86 °FPassing clouds.6 mph43%29.86 "HgN/A
3:50 pm88 °FSunny.3 mph40%29.89 "Hg10 mi
3:20 pm86 °FSunny.6 mph40%29.89 "Hg10 mi
2:50 pm84 °FPassing clouds.5 mph43%29.89 "HgN/A
1:50 pm82 °FSunny.5 mph48%29.89 "Hg10 mi
1:20 pm82 °FPassing clouds.6 mph48%29.92 "HgN/A
12:50 pm82 °FPassing clouds.6 mph48%29.92 "HgN/A
12:20 pm81 °FPassing clouds.5 mph48%29.92 "HgN/A
11:50 am77 °FPassing clouds.6 mph54%29.95 "HgN/A
11:20 am79 °FPassing clouds.3 mph51%29.95 "HgN/A
10:50 am77 °FPassing clouds.2 mph51%29.92 "HgN/A
10:20 am77 °FPassing clouds.3 mph51%29.95 "HgN/A
9:50 am75 °FPassing clouds.2 mph50%29.95 "HgN/A
9:20 am75 °FPassing clouds.2 mph47%29.95 "HgN/A
8:50 am73 °FSunny.2 mph53%29.95 "Hg10 mi
8:20 am73 °FSunny.3 mph50%29.95 "Hg10 mi
7:50 am72 °FPassing clouds.3 mph57%29.95 "HgN/A
7:20 am73 °FPassing clouds.3 mph50%29.95 "HgN/A
6:50 am72 °FSunny.No wind50%29.92 "Hg10 mi
6:20 am70 °FSunny.No wind53%29.92 "Hg10 mi
5:50 am68 °FClear.1 mph64%29.92 "Hg10 mi
5:20 am72 °FClear.1 mph44%29.92 "Hg10 mi
4:50 am72 °FClear.No wind47%29.92 "Hg10 mi
4:20 am72 °FClear.No wind44%29.92 "Hg10 mi
3:50 am72 °FClear.No wind47%29.95 "Hg10 mi
3:20 am75 °FClear.2 mph34%29.95 "Hg10 mi
2:50 am77 °FPassing clouds.3 mph32%29.95 "HgN/A
2:20 am77 °FPassing clouds.3 mph32%29.95 "HgN/A
Weather by CustomWeather, © 2017

See weather overviewHow to use our weather pages